WX BEACON Weather Reports


time (UTC)temp
C
wind
direction
speed
KPH
gust
KPH
rain 1hr
cm
rain 24hr
cm
rain mn
cm
humidity
%
barometer
mb
20260509103732 20 204 9.7 20.9 0.00 0.00 0.00 93 1007.0
20260509102732 20 204 9.7 20.9 0.00 0.00 0.00 93 1007.0
20260509100732 20 204 9.7 20.9 0.00 0.00 0.00 93 1007.0
20260509095732 20 189 12.9 25.7 0.00 0.00 0.00 93 1007.4
20260509094732 20 189 12.9 25.7 0.00 0.00 0.00 93 1007.4
20260509093732 20 189 12.9 25.7 0.00 0.00 0.00 93 1007.4
20260509092732 20 189 12.9 25.7 0.00 0.00 0.00 93 1007.4
20260509085732 20 223 6.4 12.9 0.00 0.00 0.00 92 1009.9
20260509084733 20 223 6.4 12.9 0.00 0.00 0.00 92 1009.9
20260509082732 20 223 6.4 12.9 0.00 0.00 0.00 92 1009.9
20260509081731 20 223 6.4 12.9 0.00 0.00 0.00 92 1009.9
20260509075731 20 200 3.2 6.4 0.00 0.00 0.00 91 1010.3
20260509074732 20 200 3.2 6.4 0.00 0.00 0.00 91 1010.3
20260509073731 20 200 3.2 6.4 0.00 0.00 0.00 91 1010.3
20260509065733 20 0 0.0 0.0 0.00 0.00 0.00 90 1010.3
20260509064731 20 0 0.0 0.0 0.00 0.00 0.00 90 1010.3
20260509063731 20 0 0.0 0.0 0.00 0.00 0.00 90 1010.3
20260509062732 20 0 0.0 0.0 0.00 0.00 0.00 90 1010.3
20260509061731 20 0 0.0 0.0 0.00 0.00 0.00 90 1010.3
20260509060731 20 0 0.0 0.0 0.00 0.00 0.00 90 1010.3
20260509055732 21 180 3.2 6.4 0.00 0.00 0.00 88 1009.9
20260509054732 21 180 3.2 6.4 0.00 0.00 0.00 88 1009.9
20260509052731 21 180 3.2 6.4 0.00 0.00 0.00 88 1009.9
20260509050731 21 180 3.2 6.4 0.00 0.00 0.00 88 1009.9
20260509044731 22 162 3.2 6.4 0.00 0.00 0.00 87 1010.0
20260509042731 22 162 3.2 6.4 0.00 0.00 0.00 87 1010.0
20260509041732 22 162 3.2 6.4 0.00 0.00 0.00 87 1010.0
20260509040731 22 162 3.2 6.4 0.00 0.00 0.00 87 1010.0
20260509035731 22 141 3.2 9.7 0.00 0.00 0.00 86 1009.1
20260509034731 22 141 3.2 9.7 0.00 0.00 0.00 86 1009.1
20260509033731 22 141 3.2 9.7 0.00 0.00 0.00 86 1009.1
20260509032731 22 141 3.2 9.7 0.00 0.00 0.00 86 1009.1
20260509031732 22 141 3.2 9.7 0.00 0.00 0.00 86 1009.1
20260509030734 22 141 3.2 9.7 0.00 0.00 0.00 86 1009.1
20260509025731 22 0 0.0 6.4 0.00 0.00 0.00 84 1008.7
20260509024733 22 0 0.0 6.4 0.00 0.00 0.00 84 1008.7
20260509023732 22 0 0.0 6.4 0.00 0.00 0.00 84 1008.7
20260509022733 22 0 0.0 6.4 0.00 0.00 0.00 84 1008.7
20260509020732 22 0 0.0 6.4 0.00 0.00 0.00 84 1008.7
20260509015732 22 158 0.0 6.4 0.00 0.00 0.00 82 1008.2
20260509014732 22 158 0.0 6.4 0.00 0.00 0.00 82 1008.2
20260509013732 22 158 0.0 6.4 0.00 0.00 0.00 82 1008.2
20260509012734 22 158 0.0 6.4 0.00 0.00 0.00 82 1008.2
20260509011732 22 158 0.0 6.4 0.00 0.00 0.00 82 1008.2
20260509010732 22 158 0.0 6.4 0.00 0.00 0.00 82 1008.2
20260509005733 22 159 3.2 9.7 0.00 0.00 0.00 80 1007.9
20260509004732 22 159 3.2 9.7 0.00 0.00 0.00 80 1007.9
20260509003732 22 159 3.2 9.7 0.00 0.00 0.00 80 1007.9
20260509002732 22 159 3.2 9.7 0.00 0.00 0.00 80 1007.9
20260508235732 22 159 6.4 22.5 0.00 0.00 0.00 78 1007.9
20260508233732 22 159 6.4 22.5 0.00 0.00 0.00 78 1007.9
20260508230732 22 159 6.4 22.5 0.00 0.00 0.00 78 1007.9
20260508225731 22 148 6.4 9.7 0.00 0.00 0.00 78 1008.6
20260508224732 22 148 6.4 9.7 0.00 0.00 0.00 78 1008.6
20260508223732 22 148 6.4 9.7 0.00 0.00 0.00 78 1008.6
20260508222732 22 148 6.4 9.7 0.00 0.00 0.00 78 1008.6
20260508221733 22 148 6.4 9.7 0.00 0.00 0.00 78 1008.6
20260508220732 22 148 6.4 9.7 0.00 0.00 0.00 78 1008.6
20260508214731 20 155 16.1 25.7 0.00 0.00 0.00 85 1008.1
20260508212733 20 155 16.1 25.7 0.00 0.00 0.00 85 1008.1
20260508211732 20 155 16.1 25.7 0.00 0.00 0.00 85 1008.1
20260508210734 20 155 16.1 25.7 0.00 0.00 0.00 85 1008.1
20260508204731 22 185 9.7 20.9 0.00 0.00 0.00 71 1010.8
20260508203732 22 185 9.7 20.9 0.00 0.00 0.00 71 1010.8
20260508202731 22 185 9.7 20.9 0.00 0.00 0.00 71 1010.8
20260508200732 22 185 9.7 20.9 0.00 0.00 0.00 71 1010.8
20260508195731 21 164 9.7 20.9 0.00 0.00 0.00 71 1010.9
20260508194732 21 164 9.7 20.9 0.00 0.00 0.00 71 1010.9
20260508193731 21 164 9.7 20.9 0.00 0.00 0.00 71 1010.9
20260508191731 21 164 9.7 20.9 0.00 0.00 0.00 71 1010.9
20260508190731 21 164 9.7 20.9 0.00 0.00 0.00 71 1010.9
20260508185732 21 157 6.4 16.1 0.00 0.00 0.00 68 1011.6
20260508183731 21 157 6.4 16.1 0.00 0.00 0.00 68 1011.6
20260508182731 21 157 6.4 16.1 0.00 0.00 0.00 68 1011.6
20260508175732 21 177 9.7 20.9 0.00 0.00 0.00 68 1012.4
20260508174731 21 177 9.7 20.9 0.00 0.00 0.00 68 1012.4
20260508173731 21 177 9.7 20.9 0.00 0.00 0.00 68 1012.4
20260508172731 21 177 9.7 20.9 0.00 0.00 0.00 68 1012.4
20260508171731 21 177 9.7 20.9 0.00 0.00 0.00 68 1012.4
20260508170731 21 177 9.7 20.9 0.00 0.00 0.00 68 1012.4
20260508165731 20 149 3.2 12.9 0.00 0.00 0.00 74 1013.3
20260508164731 20 149 3.2 12.9 0.00 0.00 0.00 74 1013.3
20260508163731 20 149 3.2 12.9 0.00 0.00 0.00 74 1013.3
20260508162731 20 149 3.2 12.9 0.00 0.00 0.00 74 1013.3
20260508160731 20 149 3.2 12.9 0.00 0.00 0.00 74 1013.3
20260508155732 18 140 6.4 12.9 0.00 0.00 0.00 74 1013.8
20260508154731 18 140 6.4 12.9 0.00 0.00 0.00 74 1013.8
20260508152731 18 140 6.4 12.9 0.00 0.00 0.00 74 1013.8
20260508151732 18 140 6.4 12.9 0.00 0.00 0.00 74 1013.8
20260508150731 18 140 6.4 12.9 0.00 0.00 0.00 74 1013.8
20260508144732 17 105 3.2 12.9 0.00 0.00 0.00 77 1014.0
20260508143731 17 105 3.2 12.9 0.00 0.00 0.00 77 1014.0
20260508141731 17 105 3.2 12.9 0.00 0.00 0.00 77 1014.0
20260508140731 17 105 3.2 12.9 0.00 0.00 0.00 77 1014.0